Location: Sevilla
(37.3933°N, 5.9839°W)
Time: 06:13:48
(UTC+02:00)

Vanguard 3 - Pass Details

Date: 25 June 2024
Orbit: 508 x 3231 km, 33.4° (Epoch: 15 July)

Event Time Altitude Azimuth Distance (km) Brightness Sun altitude
Rises 12:04:58 0° 259° (W) 5,699 11.2 56.6°
Reaches altitude 10° 12:09:27 10° 257° (WSW) 4,241 10.6 57.5°
Maximum altitude 12:19:40 65° 179° (S) 1,276 9.4 59.4°
Drops below altitude 10° 12:25:23 10° 98° (E) 2,442 10.3 60.5°
Sets 12:27:21 0° 95° (E) 3,168 10.6 60.9°
